| time (UTC) | temp C | wind direction | speed KPH | gust KPH | rain 1hr cm | rain 24hr cm | rain mn cm | humidity % | barometer mb |
| 20260506211534 | 22 | 287 | 9.7 | 27.4 | 0.00 | 0.00 | 0.00 | 43 | 1018.8 |
| 20260506210032 | 22 | 226 | 6.4 | 22.5 | 0.00 | 0.00 | 0.00 | 44 | 1018.9 |
| 20260506203033 | 21 | 309 | 11.3 | 22.5 | 0.00 | 0.00 | 0.00 | 46 | 1018.9 |
| 20260506201536 | 21 | 311 | 9.7 | 19.3 | 0.00 | 0.00 | 0.00 | 44 | 1018.9 |
| 20260506194532 | 21 | 249 | 6.4 | 17.7 | 0.00 | 0.00 | 0.00 | 47 | 1018.9 |
| 20260506193035 | 21 | 252 | 6.4 | 20.9 | 0.00 | 0.00 | 0.00 | 50 | 1019.1 |
| 20260506190037 | 20 | 287 | 8.0 | 22.5 | 0.00 | 0.00 | 0.00 | 52 | 1019.1 |
| 20260506184535 | 20 | 302 | 11.3 | 22.5 | 0.00 | 0.00 | 0.00 | 52 | 1018.9 |
| 20260506183028 | 20 | 300 | 6.4 | 14.5 | 0.00 | 0.00 | 0.00 | 55 | 1018.9 |
| 20260506181530 | 19 | 312 | 9.7 | 20.9 | 0.00 | 0.00 | 0.00 | 57 | 1019.0 |
| 20260506180035 | 19 | 318 | 12.9 | 25.7 | 0.00 | 0.00 | 0.00 | 56 | 1019.0 |
| 20260506173032 | 18 | 5 | 6.4 | 12.9 | 0.00 | 0.00 | 0.00 | 59 | 1018.7 |
| 20260506171554 | 18 | 5 | 6.4 | 14.5 | 0.00 | 0.00 | 0.00 | 62 | 1018.8 |
| 20260506170034 | 17 | 358 | 8.0 | 16.1 | 0.00 | 0.00 | 0.00 | 63 | 1018.8 |
| 20260506164535 | 17 | 11 | 6.4 | 16.1 | 0.00 | 0.00 | 0.00 | 64 | 1018.9 |
| 20260506163035 | 16 | 329 | 11.3 | 29.0 | 0.00 | 0.00 | 0.00 | 65 | 1019.1 |
| 20260506161531 | 16 | 329 | 11.3 | 22.5 | 0.00 | 0.00 | 0.00 | 68 | 1019.2 |
| 20260506160035 | 15 | 351 | 11.3 | 22.5 | 0.00 | 0.00 | 0.00 | 72 | 1019.1 |
| 20260506154530 | 14 | 344 | 6.4 | 17.7 | 0.00 | 0.00 | 0.00 | 75 | 1019.2 |
| 20260506153035 | 13 | 344 | 4.8 | 9.7 | 0.00 | 0.00 | 0.00 | 77 | 1019.0 |
| 20260506151535 | 12 | 83 | 3.2 | 6.4 | 0.00 | 0.00 | 0.00 | 82 | 1019.0 |
| 20260506144535 | 11 | 109 | 3.2 | 6.4 | 0.00 | 0.00 | 0.00 | 86 | 1018.9 |
| 20260506143140 | 10 | 148 | 3.2 | 6.4 | 0.00 | 0.00 | 0.00 | 91 | 1018.9 |
| 20260506141535 | 8 | 146 | 3.2 | 4.8 | 0.00 | 0.00 | 0.00 | 94 | 1018.6 |
| 20260506140037 | 7 | 177 | 3.2 | 6.4 | 0.00 | 0.00 | 0.00 | 95 | 1018.5 |
| 20260506134536 | 7 | 176 | 4.8 | 6.4 | 0.00 | 0.00 | 0.00 | 95 | 1018.3 |
| 20260506133034 | 6 | 162 | 4.8 | 8.0 | 0.00 | 0.00 | 0.00 | 95 | 1018.2 |
| 20260506131537 | 6 | 166 | 4.8 | 11.3 | 0.00 | 0.00 | 0.00 | 94 | 1018.1 |
| 20260506124537 | 7 | 157 | 3.2 | 6.4 | 0.00 | 0.00 | 0.00 | 94 | 1017.9 |
| 20260506123033 | 6 | 146 | 3.2 | 4.8 | 0.00 | 0.00 | 0.00 | 95 | 1017.7 |
| 20260506121608 | 6 | 163 | 4.8 | 6.4 | 0.00 | 0.00 | 0.00 | 95 | 1017.6 |
| 20260506120042 | 6 | 162 | 3.2 | 6.4 | 0.00 | 0.00 | 0.00 | 95 | 1017.5 |
| 20260506113035 | 7 | 146 | 4.8 | 11.3 | 0.00 | 0.00 | 0.00 | 95 | 1017.2 |
| 20260506111537 | 7 | 166 | 4.8 | 8.0 | 0.00 | 0.00 | 0.00 | 95 | 1017.1 |
| 20260506110037 | 7 | 157 | 4.8 | 6.4 | 0.00 | 0.00 | 0.00 | 94 | 1017.0 |
| 20260506104534 | 7 | 157 | 4.8 | 6.4 | 0.00 | 0.00 | 0.00 | 94 | 1016.9 |
| 20260506103109 | 7 | 164 | 4.8 | 6.4 | 0.00 | 0.00 | 0.00 | 94 | 1016.7 |
| 20260506094538 | 7 | 163 | 4.8 | 6.4 | 0.00 | 0.00 | 0.00 | 93 | 1016.6 |
| 20260506091536 | 8 | 157 | 4.8 | 6.4 | 0.00 | 0.00 | 0.00 | 93 | 1016.5 |
| 20260506090037 | 8 | 161 | 4.8 | 6.4 | 0.00 | 0.00 | 0.00 | 93 | 1016.5 |
| 20260506083151 | 8 | 148 | 3.2 | 6.4 | 0.00 | 0.00 | 0.00 | 92 | 1016.2 |
| 20260506081535 | 8 | 161 | 4.8 | 6.4 | 0.00 | 0.00 | 0.00 | 92 | 1016.2 |
| 20260506073038 | 9 | 157 | 4.8 | 6.4 | 0.00 | 0.00 | 0.00 | 91 | 1015.9 |
| 20260506071643 | 10 | 143 | 3.2 | 6.4 | 0.00 | 0.00 | 0.00 | 91 | 1015.9 |
| 20260506050108 | 12 | 136 | 3.2 | 4.8 | 0.00 | 0.00 | 0.00 | 80 | 1015.1 |
| 20260506043110 | 15 | 118 | 3.2 | 3.2 | 0.00 | 0.00 | 0.00 | 74 | 1014.9 |
| 20260506041609 | 15 | 112 | 0.0 | 3.2 | 0.00 | 0.00 | 0.00 | 72 | 1014.9 |
| 20260506040038 | 15 | 105 | 0.0 | 4.8 | 0.00 | 0.00 | 0.00 | 70 | 1014.6 |
| 20260506033109 | 17 | 24 | 1.6 | 4.8 | 0.00 | 0.00 | 0.00 | 65 | 1014.0 |
| 20260506031628 | 18 | 37 | 1.6 | 8.0 | 0.00 | 0.00 | 0.00 | 62 | 1013.9 |
| 20260506030037 | 18 | 16 | 4.8 | 9.7 | 0.00 | 0.00 | 0.00 | 61 | 1013.8 |
| 20260506024535 | 19 | 16 | 8.0 | 12.9 | 0.00 | 0.00 | 0.00 | 59 | 1013.5 |
| 20260506023034 | 20 | 20 | 9.7 | 17.7 | 0.00 | 0.00 | 0.00 | 56 | 1013.4 |
| 20260506021536 | 21 | 17 | 9.7 | 16.1 | 0.00 | 0.00 | 0.00 | 55 | 1013.3 |
| 20260506020035 | 21 | 18 | 11.3 | 17.7 | 0.00 | 0.00 | 0.00 | 54 | 1013.2 |
| 20260506013034 | 23 | 15 | 11.3 | 17.7 | 0.00 | 0.00 | 0.00 | 50 | 1013.0 |
| 20260506010034 | 24 | 316 | 6.4 | 12.9 | 0.00 | 0.00 | 0.00 | 46 | 1012.9 |
| 20260506004536 | 23 | 305 | 8.0 | 19.3 | 0.00 | 0.00 | 0.00 | 47 | 1013.0 |
| 20260506003035 | 24 | 314 | 8.0 | 19.3 | 0.00 | 0.00 | 0.00 | 49 | 1012.9 |
| 20260506001534 | 23 | 6 | 11.3 | 22.5 | 0.00 | 0.00 | 0.00 | 53 | 1012.9 |
| 20260506000036 | 23 | 18 | 11.3 | 22.5 | 0.00 | 0.00 | 0.00 | 52 | 1013.0 |
| 20260505234534 | 23 | 15 | 11.3 | 20.9 | 0.00 | 0.00 | 0.00 | 53 | 1013.1 |
| 20260505233109 | 23 | 15 | 11.3 | 20.9 | 0.00 | 0.00 | 0.00 | 53 | 1013.2 |
| 20260505231536 | 23 | 12 | 11.3 | 19.3 | 0.00 | 0.00 | 0.00 | 53 | 1013.2 |
| 20260505230036 | 23 | 17 | 9.7 | 17.7 | 0.00 | 0.00 | 0.00 | 53 | 1013.3 |
| 20260505223035 | 22 | 21 | 11.3 | 20.9 | 0.00 | 0.00 | 0.00 | 53 | 1013.5 |
| 20260505221536 | 23 | 11 | 11.3 | 17.7 | 0.00 | 0.00 | 0.00 | 53 | 1013.6 |
| 20260505220110 | 23 | 13 | 9.7 | 17.7 | 0.00 | 0.00 | 0.00 | 52 | 1013.7 |
| 20260505214530 | 22 | 18 | 9.7 | 16.1 | 0.00 | 0.00 | 0.00 | 53 | 1013.8 |
| 20260505213151 | 22 | 9 | 9.7 | 17.7 | 0.00 | 0.00 | 0.00 | 53 | 1013.9 |